Starlink 1227

operational
NORAD ID: 45230 Int'l Des: 2020-012 Owner: SPXS Country: US Constellation: starlink
LEOCIRCULARSTARLINK_TYPE

About Starlink 1227

Description loading...

Live Position

Loading 3D Globe...

Upcoming Passes

Altitude History

Altitude vs Time

uPlot chart will show altitude changes over time

Two-Line Element Set

1 45230U 20012BE 25259.73414401 .00000862 00000-0 76767-4 0 9999
2 45230 53.0550 67.5330 0001316 93.3635 266.7504 15.06394391309191
Epoch: Sep 16, 2025 • Age: 29 hours

Current Status

Altitude 552.8 km
Velocity 7.59 km/s
Sub-Earth Point 53.08°N, 169.5°E
Launch Date Feb 17, 2020
Age 5.5 years
Type internet

Technical Details

Classification Payload
Mass 260.00 kg
Dry Mass 248.00 kg
Total Mass 260.00 kg
Length 0.20 m
Diameter 2.80 m
Span 9.00 m
Shape Box + pan
Manufacturer SPXS
Bus Type Starlink
Phase Status In Orbit
Owner/State SPXS/US

Large Constellations

Loading constellations...